Observations for Trim Patrick St
| Time | AQI | Temp °C | Hum % | Pres Pa | CO μg/m³ | H₂S μg/m³ | NO μg/m³ | NO₂ μg/m³ | O₃ μg/m³ | SO₂ μg/m³ | PM1 μg/m³ | PM2.5 μg/m³ | PM10 μg/m³ |
|---|---|---|---|---|---|---|---|---|---|---|---|---|---|
| Sunday 2 August 2026 | |||||||||||||
| 18:02 | 3 | 22.2 | 47 | 68,853 | 0 | 27.95 | 0.99 | 64.11 | 94.46 | 7.82 | 3.71 | 10.47 | 11.51 |
| 18:01 | 3 | 22.3 | 46 | 68,865 | 0 | 25.92 | 0.97 | 64.96 | 107.83 | 8.16 | 2.86 | 9.01 | 9.91 |
| 18:00 | 3 | 22.4 | 45 | 68,853 | 0 | 26.63 | 0.96 | 60.95 | 129.78 | 8.75 | 4.57 | 9.82 | 10.81 |
| 17:59 | 3 | 22.5 | 44 | 68,875 | 0 | 18.46 | 0.95 | 29.25 | 80.55 | 6.98 | 3.71 | 9.91 | 10.9 |
| 17:58 | 3 | 22.6 | 44 | 68,867 | 0 | 19.41 | 1 | 44.05 | 111.65 | 7.63 | 2.86 | 7.59 | 8.35 |
| 17:57 | 3 | 22.7 | 43 | 68,859 | 0 | 15.1 | 0.97 | 20.2 | 74.64 | 7.08 | 2.86 | 9.2 | 10.12 |
| 17:56 | 3 | 22.8 | 43 | 68,875 | 0 | 19.54 | 0.93 | 34.98 | 113.44 | 8.15 | 2.86 | 8.41 | 9.25 |
| 17:55 | 3 | 22.9 | 42 | 68,863 | 0 | 15.04 | 0.95 | 29.49 | 65.98 | 6.54 | 2.86 | 8.47 | 9.32 |
| 17:54 | 3 | 23 | 42 | 68,878 | 0 | 16.78 | 1.03 | 34.9 | 69.02 | 7.08 | 3.71 | 9.26 | 10.18 |
| 17:53 | 3 | 23.1 | 42 | 68,869 | 0 | 19.22 | 1.01 | 40.98 | 104.82 | 8.21 | 2.86 | 7.7 | 8.48 |
| 17:52 | 3 | 23.2 | 41 | 68,882 | 0 | 14.82 | 1.06 | 30.61 | 86.31 | 7.72 | 2.86 | 8.53 | 9.39 |
| 17:51 | 3 | 23.2 | 41 | 68,875 | 0 | 17.12 | 1.1 | 37.69 | 77.15 | 7.33 | 2.86 | 8.53 | 9.39 |
| 17:50 | 3 | 23.3 | 41 | 68,894 | 0 | 20.27 | 1.1 | 45.35 | 123.04 | 8.4 | 4.57 | 11.66 | 12.83 |
| 17:49 | 3 | 23.4 | 40 | 68,916 | 0 | 13.04 | 1.05 | 30.11 | 86.77 | 6.7 | 2.86 | 8.6 | 9.46 |
| 17:48 | 3 | 23.4 | 40 | 68,916 | 0 | 10.87 | 1.11 | 26.94 | 82.98 | 7.25 | 2.86 | 8.63 | 9.5 |
| 17:47 | 3 | 23.5 | 40 | 68,918 | 0 | 9.75 | 1.08 | 14.51 | 76.93 | 6.59 | 2.86 | 8.63 | 9.5 |
| 17:46 | 3 | 23.5 | 39 | 68,920 | 0 | 10.86 | 1.15 | 20.24 | 83.97 | 7.47 | 4.57 | 10.22 | 11.25 |
| 17:45 | 3 | 23.6 | 39 | 68,922 | 0 | 7.36 | 1.18 | 15.19 | 72.4 | 7 | 3.71 | 9.46 | 10.41 |
| 17:44 | 3 | 23.6 | 39 | 68,922 | 0 | 5.98 | 1.35 | 20.81 | 73.97 | 6.83 | 2.86 | 8.71 | 9.58 |
| 17:43 | 3 | 23.7 | 38 | 68,924 | 0 | 2.58 | 1.22 | 11.63 | 69.62 | 6.08 | 2 | 8.72 | 9.59 |